Location: Lowman
(44.0835°N, 115.6207°W)
Time: 07:18:50
(UTC+00:00)

Envisat - Pass Details

Date: 28 November 2022
Orbit: 763 x 765 km, 98.2° (Epoch: 07 February)

Event Time Altitude Azimuth Distance (km) Brightness Sun altitude
Rises 12:27:13 0° 8° (N) 3,244 6.3 -25.8°
Reaches altitude 10° 12:29:34 10° 4° (N) 2,313 5.5 -25.4°
Enters shadow 12:31:43 25° 355° (N) 1,525 4.4 -25.0°
